Kinetic-One Castle Combe TT Series 2018
Skip Navigation Links
Results
Team Results
Live Leaderboard
DB Max TT Series
Race Stats
Smartphone Results
8 Aug 2018
HyperLink
Click on your name for more detailed race data
Page 1 of 2 (100 items)
[1]2
Pos
Bib No
Fav
Share
Photo
Name
Time
Category
Cat Pos
Gender
Gen Pos
Club
Start Time
Split 1
G/Pos
Lap 1
G/Pos
Lap 2
G/Pos
Lap 3
G/Pos
Lap 4
G/Pos
Lap 5
G/Pos
1135Ben SKINNER20:22.1Sen1Male1WHEELS OF DORSET20:07:301:41.813:41.513:44.313:45.213:46.813:42.31
2132Tavis WALKER20:43.2Sen2Male2VC WALCOT 20:06:001:43.723:46.223:50.223:49.423:48.423:45.02
3131Richard BROOK20:57.6Vet401Male3VC WALCOT 20:05:301:44.133:48.833:51.743:50.733:51.533:50.53
4130Robert GROVER21:02.8Sen3Male4VC WALCOT 20:05:001:44.843:49.043:51.333:50.843:55.943:50.74
5134Alex DOHERTY21:20.6Sen4Male5GOODE2SWIM20:07:001:47.273:56.553:55.153:53.453:56.353:51.95
6125James EACOTT22:06.4Sen5Male6 20:02:301:54.4193:59.563:58.264:04.464:06.564:03.28
768John BENJAMIN22:15.3Sen6Male7BOA CC19:34:001:53.7173:59.874:03.274:09.2114:09.0104:00.16
871Michael MILSTEAD22:15.5Vet402Male8ST MARYS RUNNING & TRIATHLON CLUB19:35:301:48.2104:05.3114:04.894:05.684:08.284:03.17
9112Chris LENG22:23.2Vet403Male9VC WALCOT 19:56:001:47.994:10.3134:05.8104:08.0104:07.574:03.49
10127Martin ALDAM22:24.0Vet404Male10BATH CC20:03:301:55.9274:01.294:03.684:06.194:08.794:08.212
11133Jason STREATHER22:27.2Vet405Male11PDQ CYCLE COACHING20:06:301:55.8264:01.084:06.1114:05.074:11.8134:07.211
1260Thomas RICHES22:38.6Sen7Male12FLYING MONK TRI CLUB19:30:001:48.8114:12.7174:13.1144:10.1124:10.1114:03.510
13128John O'DWYER22:45.0Sen8Male13DURSLEY ROAD CLUB20:04:001:52.6144:04.7104:09.5124:14.5164:14.6154:08.914
146Mike COX22:51.6Supvet601Male14CHIPPENHAM TRI CLUB19:03:001:56.5304:09.5124:11.4134:13.7154:11.7124:08.713
15120Wayne OSMOND22:55.3Supvet501Male15 20:00:001:46.864:12.1164:13.5164:13.1144:13.8144:15.915
1697Peter BALLINGER23:13.0Vet406Male16TTG19:48:301:55.4234:11.2154:13.3154:20.0214:15.5164:17.418
1777Nick BUFFERY23:20.0Sen9Male17 19:38:301:45.654:14.8194:21.5224:19.6204:21.0214:17.217
1880Krispin GARDINER23:21.6Jun1Male18PDQ CYCLE COACHING19:40:001:51.9134:17.7214:21.9234:11.6134:17.7184:20.623
19115Caitlin PETERS23:26.7Jun1Female1 19:57:301:53.714:21.534:21.314:18.814:15.714:15.61
20119Chrissie ROWLEY23:28.6Supvet501Female2NOPINZ 19:59:301:55.124:17.514:22.924:19.924:16.424:16.73
21106James CURRIE23:30.8Vet407Male19CHIPPENHAM WHEELERS19:53:001:54.8204:10.4144:15.4174:20.3224:24.1254:25.631
2276Charles EATON23:31.4Sen10Male20 19:38:001:47.484:19.8244:22.6254:21.2244:18.4194:21.725
2385Stephen HARVEY23:31.5Supvet602Male21YEOVIL CC19:42:301:55.5244:14.4184:16.7194:17.0184:23.0244:24.629
2482Ian MOORE23:33.6Supvet502Male22PHIL KIBBLE COACHING19:41:001:55.2224:17.7224:16.0184:18.2194:22.8234:23.427
2573Steve BRAY23:34.8Vet408Male23SALT AND SHAM CC19:36:301:56.0284:23.0284:24.5274:16.0174:16.1174:18.921
26100Robert ABRAHAM23:42.9Sen11Male24BIKESTRONG-KTM19:50:001:55.7254:14.8204:19.8214:24.5264:24.3264:23.528
27124Richard NORRIS 23:42.9Vet409Male25YEOVIL CC20:02:001:56.1294:18.9234:17.8204:20.9234:25.8284:23.026
28110Joanne JAGO23:47.2Sen1Female3PERFORMANCE CYCLES19:55:001:57.034:24.344:24.734:24.834:19.634:16.62
2975Ray PERKINS23:59.1Supvet503Male26 19:37:302:03.2404:26.6344:24.6284:24.7274:21.8224:17.920
3061Harry WOODMAN24:04.4Jun2Male27VC WALCOT 19:30:301:54.2184:26.7354:32.3334:26.2284:28.5314:16.316
31111Paul HAYNES24:07.2Vet4010Male28VC-CYCLING19:55:301:55.0214:26.0324:22.4244:29.7334:27.9304:25.932
32104John REED24:10.0Supvet504Male29Wesbury Harriers19:52:001:50.0124:20.0254:34.0354:27.0304:29.0324:30.037
33105Gary FORD24:10.6Vet4011Male30TEAM BOTTRILL19:52:301:59.4354:22.4274:29.8324:26.4294:30.9334:21.524
3442Chris MCDONALD24:11.5Tandem1Male31 19:21:002:03.5414:22.2264:23.3264:32.0374:32.7364:17.519
3533John BUTTERWORTH24:17.1Supvet505Male32ST MARYS RUNNING & TRIATHLON CLUB19:16:302:09.6564:36.6434:28.3314:22.6254:19.7204:20.122
3698Nadia TRAMONTIN24:18.7Vet401Female4 19:49:002:03.344:20.224:26.144:32.644:28.144:28.25
3750Dan LAASNA REUTER24:25.7Vet4012Male33 19:25:002:00.0384:24.8304:33.9344:27.3314:32.5344:27.035
3872Clive SHIPWAY24:27.6Vet4013Male34 19:36:001:52.8154:36.1414:34.8364:30.2344:25.7274:27.836
3988Stephen CHAPMAN24:29.9Supvet506Male35CORINIUM CYCLING CLUB19:44:002:04.6454:24.3294:26.7294:29.0324:33.0374:32.040
4093Tim LOWRIE24:37.3Vet4014Male36AVON VALLEY RUNNERS19:46:301:59.2344:25.4314:28.2304:32.0364:35.7404:36.642
41108Robert SIMS24:40.0Sen12Male37SEVERN ROAD CLUB19:54:001:59.1334:31.4364:37.9444:33.0384:33.0384:25.330
42109Tim PURVEY24:45.2Vet4015Male38 19:54:301:53.6164:26.2334:36.0394:38.2444:40.1434:30.939
4366Ross THOMAS24:47.2Sen13Male39 19:33:002:08.0524:37.3444:36.4424:32.0354:27.4294:25.933
4474Giles BISSETT24:51.0Vet4016Male40 19:37:001:56.7314:34.0384:41.7494:39.0474:32.5354:26.834
4586James EASTWOOD25:02.8Sen14Male41PASSION FIT19:43:002:09.5554:34.1394:35.8384:34.2394:38.2414:30.838
4664Georgie LITTLE25:09.4Sen2Female5UNIVERSITY OF BATH CYCLING CLUB 19:32:002:03.954:32.354:43.164:44.654:41.364:23.94
4751Adrian WILKINS25:10.7Supvet507Male42BAD TRI19:25:301:59.7364:32.6374:36.3414:43.7484:39.5424:38.744
4836Simon DAWE25:14.0Sen15Male43Stroud Valley Velos19:18:002:05.8484:42.2484:36.1404:38.6464:35.4394:35.741
4987Sam KENYON25:17.6Vet4017Male44FLYING MONK TRIATHLON CLUB19:43:302:05.7474:36.2424:35.0374:35.0404:45.2484:40.247
5079Robin FOX25:17.9Supvet508Male45DURSLEY ROAD CLUB19:39:302:04.2434:38.5454:39.6474:35.5414:41.0454:38.945
Page 1 of 2 (100 items)
[1]2
fb

HyperLink Copyright (c) G Vincent, 2018